Location: Chiroubles
(46.1812°N, 4.6660°E)
Time: 21:33:40
(UTC+00:00)

Courier 1B - Pass Details

Date: 03 August 2021
Orbit: 963 x 1209 km, 28.3° (Epoch: 25 September)

Event Time Altitude Azimuth Distance (km) Brightness Sun altitude
Rises 20:39:06 0° 246° (WSW) 4,104 11.1 -13.6°
Reaches altitude 10° 20:43:01 10° 229° (SW) 3,125 10.2 -14.1°
Maximum altitude 20:47:54 18° 190° (S) 2,531 9.3 -14.7°
Enters shadow 20:50:30 15° 166° (SSE) 2,685 9.3 -15.0°
